Location: Moy Burn
(57.3833°N, 4.0667°W)
Time: 12:37:24
(UTC+00:00)

SL-16 R/B - Pass Details

Date: 08 August 2020
Orbit: 985 x 1007 km, 99.5° (Epoch: 22 September)

Event Time Altitude Azimuth Distance (km) Brightness Sun altitude
Exits shadow 23:46:15 - 114° (ESE) 3,558 5.1 -16.5°
Reaches altitude 10° 23:48:32 10° 105° (ESE) 2,787 4.7 -16.5°
Maximum altitude 23:53:47 29° 48° (NE) 1,751 4.2 -16.6°
Drops below altitude 10° 23:59:02 10° 352° (N) 2,789 6.2 -16.7°
Sets 00:01:49 0° 342° (NNW) 3,739 7.1 -16.7°
